| time (UTC) | temp C | wind direction | speed KPH | gust KPH | rain 1hr cm | rain 24hr cm | rain mn cm | humidity % | barometer mb |
| 20260504081036 | 10 | 0.0 | 0.0 | 0.00 | 0.00 | 0.00 | 68 | 1005.5 | |
| 20260504050015 | 12 | 0.0 | 0.0 | 0.00 | 0.00 | 0.00 | 60 | 1007.7 | |
| 20260504045015 | 12 | 0.0 | 0.0 | 0.00 | 0.00 | 0.00 | 61 | 1007.7 | |
| 20260504044016 | 12 | 0.0 | 0.0 | 0.00 | 0.00 | 0.00 | 60 | 1007.9 | |
| 20260504043035 | 12 | 0.0 | 0.0 | 0.00 | 0.00 | 0.00 | 59 | 1007.8 | |
| 20260504042016 | 12 | 0.0 | 0.0 | 0.00 | 0.00 | 0.00 | 59 | 1007.9 | |
| 20260504041015 | 12 | 0.0 | 0.0 | 0.00 | 0.00 | 0.00 | 59 | 1008.0 | |
| 20260504040015 | 12 | 0.0 | 0.0 | 0.00 | 0.00 | 0.00 | 58 | 1008.3 | |
| 20260504035015 | 12 | 0.0 | 0.0 | 0.00 | 0.00 | 0.00 | 58 | 1008.4 | |
| 20260504034015 | 13 | 0.0 | 0.0 | 0.00 | 0.00 | 0.00 | 58 | 1008.6 | |
| 20260504033015 | 13 | 0.0 | 0.0 | 0.00 | 0.00 | 0.00 | 57 | 1008.7 | |
| 20260504032015 | 13 | 0.0 | 0.0 | 0.00 | 0.00 | 0.00 | 57 | 1008.6 | |
| 20260504031015 | 13 | 0.0 | 0.0 | 0.00 | 0.00 | 0.00 | 56 | 1008.6 | |
| 20260504030015 | 13 | 0.0 | 0.0 | 0.00 | 0.00 | 0.00 | 56 | 1008.8 | |
| 20260504025015 | 14 | 0.0 | 0.0 | 0.00 | 0.00 | 0.00 | 53 | 1008.7 | |
| 20260504024015 | 15 | 0.0 | 0.0 | 0.00 | 0.00 | 0.00 | 51 | 1008.7 | |
| 20260504023015 | 15 | 0.0 | 0.0 | 0.00 | 0.00 | 0.00 | 48 | 1008.6 | |
| 20260504022017 | 16 | 0.0 | 0.0 | 0.00 | 0.00 | 0.00 | 50 | 1008.6 | |
| 20260504021037 | 16 | 0.0 | 0.0 | 0.00 | 0.00 | 0.00 | 46 | 1008.6 | |
| 20260504020017 | 17 | 0.0 | 0.0 | 0.00 | 0.00 | 0.00 | 42 | 1008.8 | |
| 20260504015037 | 17 | 0.0 | 0.0 | 0.00 | 0.00 | 0.00 | 42 | 1008.7 | |
| 20260504014017 | 18 | 0.0 | 0.0 | 0.00 | 0.00 | 0.00 | 37 | 1008.5 | |
| 20260504013017 | 18 | 0.0 | 0.0 | 0.00 | 0.00 | 0.00 | 35 | 1008.6 | |
| 20260504012017 | 19 | 0.0 | 0.0 | 0.00 | 0.00 | 0.00 | 36 | 1008.4 | |
| 20260504011017 | 20 | 0.0 | 0.0 | 0.00 | 0.00 | 0.00 | 34 | 1008.4 | |
| 20260504010017 | 20 | 0.0 | 0.0 | 0.00 | 0.00 | 0.00 | 33 | 1008.6 | |
| 20260504005017 | 21 | 0.0 | 0.0 | 0.00 | 0.00 | 0.00 | 32 | 1008.4 | |
| 20260504004017 | 21 | 0.0 | 0.0 | 0.00 | 0.00 | 0.00 | 31 | 1008.5 | |
| 20260504003017 | 22 | 0.0 | 0.0 | 0.00 | 0.00 | 0.00 | 30 | 1008.5 | |
| 20260504002017 | 22 | 0.0 | 0.0 | 0.00 | 0.00 | 0.00 | 29 | 1008.5 | |
| 20260504001017 | 22 | 0.0 | 0.0 | 0.00 | 0.00 | 0.00 | 28 | 1008.5 | |
| 20260504000017 | 23 | 0.0 | 0.0 | 0.00 | 0.00 | 0.00 | 27 | 1008.7 | |
| 20260503235017 | 23 | 0.0 | 0.0 | 0.00 | 0.00 | 0.00 | 28 | 1008.7 | |
| 20260503234017 | 24 | 0.0 | 0.0 | 0.00 | 0.00 | 0.00 | 29 | 1008.7 | |
| 20260503233037 | 24 | 0.0 | 0.0 | 0.00 | 0.00 | 0.00 | 25 | 1008.8 | |
| 20260503232017 | 24 | 0.0 | 0.0 | 0.00 | 0.00 | 0.00 | 25 | 1008.9 | |
| 20260503231017 | 25 | 0.0 | 0.0 | 0.00 | 0.00 | 0.00 | 26 | 1008.8 | |
| 20260503230017 | 25 | 0.0 | 0.0 | 0.00 | 0.00 | 0.00 | 25 | 1008.8 | |
| 20260503225016 | 25 | 0.0 | 0.0 | 0.00 | 0.00 | 0.00 | 25 | 1008.9 | |
| 20260503224016 | 25 | 0.0 | 0.0 | 0.00 | 0.00 | 0.00 | 24 | 1008.9 | |
| 20260503223017 | 25 | 0.0 | 0.0 | 0.00 | 0.00 | 0.00 | 25 | 1008.9 | |
| 20260503222016 | 25 | 0.0 | 0.0 | 0.00 | 0.00 | 0.00 | 24 | 1008.9 | |
| 20260503221017 | 25 | 0.0 | 0.0 | 0.00 | 0.00 | 0.00 | 23 | 1009.0 | |
| 20260503220016 | 25 | 0.0 | 0.0 | 0.00 | 0.00 | 0.00 | 24 | 1009.0 | |
| 20260503215016 | 25 | 0.0 | 0.0 | 0.00 | 0.00 | 0.00 | 23 | 1009.1 | |
| 20260503214036 | 25 | 0.0 | 0.0 | 0.00 | 0.00 | 0.00 | 25 | 1009.1 | |
| 20260503213016 | 25 | 0.0 | 0.0 | 0.00 | 0.00 | 0.00 | 25 | 1009.1 | |
| 20260503212016 | 25 | 0.0 | 0.0 | 0.00 | 0.00 | 0.00 | 24 | 1009.0 | |
| 20260503211016 | 25 | 0.0 | 0.0 | 0.00 | 0.00 | 0.00 | 24 | 1009.1 | |
| 20260503210016 | 25 | 0.0 | 0.0 | 0.00 | 0.00 | 0.00 | 25 | 1009.2 | |
| 20260503205016 | 25 | 0.0 | 1.6 | 0.00 | 0.00 | 0.00 | 25 | 1009.2 | |
| 20260503204016 | 25 | 0.0 | 0.0 | 0.00 | 0.00 | 0.00 | 27 | 1009.5 | |
| 20260503203016 | 25 | 0.0 | 0.0 | 0.00 | 0.00 | 0.00 | 27 | 1009.4 | |
| 20260503202036 | 24 | 0.0 | 0.0 | 0.00 | 0.00 | 0.00 | 27 | 1009.5 | |
| 20260503201016 | 24 | 0.0 | 0.0 | 0.00 | 0.00 | 0.00 | 26 | 1009.6 | |
| 20260503200016 | 25 | 0.0 | 0.0 | 0.00 | 0.00 | 0.00 | 28 | 1009.6 | |
| 20260503195036 | 25 | 0.0 | 0.0 | 0.00 | 0.00 | 0.00 | 29 | 1009.7 | |
| 20260503194016 | 25 | 0.0 | 0.0 | 0.00 | 0.00 | 0.00 | 26 | 1009.8 | |
| 20260503193016 | 24 | 0.0 | 0.0 | 0.00 | 0.00 | 0.00 | 30 | 1009.6 | |
| 20260503192016 | 24 | 0.0 | 0.0 | 0.00 | 0.00 | 0.00 | 30 | 1009.8 | |
| 20260503191016 | 23 | 0.0 | 0.0 | 0.00 | 0.00 | 0.00 | 30 | 1009.8 | |
| 20260503190016 | 24 | 0.0 | 0.0 | 0.00 | 0.00 | 0.00 | 31 | 1009.8 | |
| 20260503185056 | 24 | 0.0 | 0.0 | 0.00 | 0.00 | 0.00 | 32 | 1009.7 | |
| 20260503184016 | 24 | 0.0 | 0.0 | 0.00 | 0.00 | 0.00 | 29 | 1009.7 | |
| 20260503183016 | 24 | 0.0 | 0.0 | 0.00 | 0.00 | 0.00 | 31 | 1009.9 | |
| 20260503182016 | 24 | 0.0 | 0.0 | 0.00 | 0.00 | 0.00 | 31 | 1009.9 | |
| 20260503181036 | 24 | 0.0 | 0.0 | 0.00 | 0.00 | 0.00 | 33 | 1009.8 | |
| 20260503180016 | 23 | 0.0 | 0.0 | 0.00 | 0.00 | 0.00 | 32 | 1010.0 | |
| 20260503175016 | 23 | 0.0 | 0.0 | 0.00 | 0.00 | 0.00 | 32 | 1010.0 | |
| 20260503174016 | 23 | 0.0 | 0.0 | 0.00 | 0.00 | 0.00 | 34 | 1009.9 | |
| 20260503173016 | 23 | 0.0 | 0.0 | 0.00 | 0.00 | 0.00 | 33 | 1010.1 | |
| 20260503172016 | 22 | 0.0 | 0.0 | 0.00 | 0.00 | 0.00 | 36 | 1010.0 | |
| 20260503171016 | 22 | 0.0 | 0.0 | 0.00 | 0.00 | 0.00 | 37 | 1010.0 | |
| 20260503131017 | 13 | 203 | 4.8 | 14.5 | 0.00 | 0.00 | 0.00 | 49 | 1010.6 |